Home   Weather   Cairo   Past weeks

Flag for Egypt Past Weather in Cairo, Egypt — Yesterday and Last 2 Weeks

Now
61 °F

Clear.


Feels Like: 61 °F
Forecast: 56 / 73 °F
Wind: 6 mph from East

Location: Cairo Airport

Current Time: Dec 6, 2016 at 11:54:42 pm

Latest Report: Dec 6, 2016 at 11:00 pm


Visibility: 10 mi

Pressure: 30.21 "Hg

Humidity: 77%

Dew Point: 54 °F

Location of CairoLocation

Past Weather in Cairo — Graph

°F

Cairo Temperature Yesterday

Maximum temperature yesterday: 73 °F (at 2:00 pm)
Minimum temperature yesterday: 55 °F (at 5:00 am)
Average temperature yesterday: 63 °F

High & Low Weather Summary for the Past Weeks

 TemperatureHumidityPressure
High79 °F (Nov 22, 1:00 pm)100% (Nov 25, 4:00 am)30.30 "Hg (Nov 25, 4:00 am)
Low52 °F (Nov 27, 6:00 am)12% (Nov 25, 11:30 am)29.86 "Hg (Nov 30, 4:00 pm)
Average65 °F53%30.05 "Hg
* Reported Nov 21 11:00 pm — Dec 6 11:00 pm, Cairo, Weather by CustomWeather, © 2016

Note: Actual official high and low records may vary slightly from our data, if they occured in-between our weather recording intervals... More about our weather records

Advertising

Cairo Weather History for the Previous 24 Hours

Scroll right to see more
 ConditionsComfort  
Time TempWeatherWind HumidityBarometerVisibility
11:00 pm
Tue, Dec 6
61 °FClear.6 mph77%30.21 "Hg10 mi
10:30 pm61 °FClear.9 mph77%30.24 "Hg10 mi
10:00 pm63 °FClear.9 mph73%30.24 "Hg10 mi
9:30 pm63 °FClear.9 mph73%30.24 "Hg10 mi
9:00 pm64 °FClear.9 mph68%30.24 "Hg10 mi
8:00 pm66 °FClear.12 mph64%30.24 "Hg10 mi
7:30 pm66 °FPassing clouds.9 mph64%30.21 "HgN/A
7:00 pm66 °FPassing clouds.12 mph64%30.21 "HgN/A
6:30 pm66 °FPassing clouds.12 mph64%30.21 "HgN/A
6:00 pm68 °FPassing clouds.12 mph60%30.21 "HgN/A
5:30 pm68 °FPassing clouds.10 mph56%30.18 "HgN/A
5:00 pm70 °FPassing clouds.14 mph57%30.18 "HgN/A
4:30 pm70 °FPartly sunny.13 mph53%30.18 "HgN/A
4:00 pm70 °FPartly sunny.16 mph50%30.18 "HgN/A
3:30 pm70 °FScattered clouds.10 mph43%30.15 "HgN/A
3:00 pm70 °FScattered clouds.13 mph46%30.15 "HgN/A
2:30 pm72 °FScattered clouds.12 mph44%30.15 "HgN/A
2:00 pm72 °FScattered clouds.10 mph47%30.15 "HgN/A
1:30 pm70 °FPartly sunny.13 mph50%30.18 "HgN/A
1:00 pm70 °FPartly sunny.13 mph50%30.18 "HgN/A
12:00 pm68 °FPartly sunny.9 mph53%30.21 "HgN/A
11:30 am70 °FPartly sunny.10 mph57%30.21 "HgN/A
11:00 am68 °FPartly sunny.10 mph60%30.21 "Hg4 mi
10:30 am66 °FPassing clouds.9 mph68%30.24 "Hg4 mi
10:00 am64 °FFog.5 mph78%30.24 "Hg2 mi
9:30 am63 °FFog.6 mph83%30.24 "Hg2 mi
9:00 am61 °FFog.No wind88%30.24 "Hg2 mi
8:30 am59 °FFog.3 mph94%30.24 "Hg2 mi
8:00 am57 °FFog.3 mph94%30.21 "Hg2 mi
7:30 am57 °FFog.No wind94%30.21 "Hg1 mi
7:00 am57 °FFog.No wind94%30.21 "Hg1 mi
6:30 am55 °FFog.No wind94%30.21 "Hg1 mi
6:00 am57 °FFog.No wind94%30.21 "Hg1 mi
5:30 am57 °FFog.No wind94%30.21 "Hg1 mi
5:00 am57 °FFog.No wind94%30.18 "Hg2 mi
4:30 am57 °FClear.No wind94%30.21 "Hg4 mi
4:00 am59 °FClear.No wind88%30.21 "Hg4 mi
3:30 am57 °FClear.No wind88%30.21 "Hg4 mi
3:00 am59 °FClear.No wind88%30.21 "Hg4 mi
2:30 am59 °FClear.No wind88%30.21 "Hg4 mi
2:00 am59 °FClear.5 mph88%30.18 "Hg4 mi
1:30 am61 °FClear.3 mph83%30.21 "Hg4 mi
1:00 am61 °FClear.3 mph83%30.21 "Hg4 mi
12:30 am61 °FClear.3 mph83%30.21 "Hg4 mi
12:00 am61 °FFog.2 mph83%30.21 "Hg2 mi
11:30 pm
Mon, Dec 5
61 °FFog.2 mph83%30.21 "Hg2 mi
11:00 pm63 °FFog.5 mph77%30.21 "Hg2 mi
Weather by CustomWeather, © 2016

See weather overviewHow to use our weather pages